Retour au catalogue

STARLINK-1573

ActifCommunicationsVLEO
NORAD 46061·PAYLOAD·🇺🇸 United States

Lancé Aug 7, 2020 depuis Cape Canaveral Space Force Station

Loading…

Prochains Passages (prochaines 24 heures)

TLE

FraisSource: CelesTrak SupGP

Époque: Sep 14, 2026, 20:43 UTC

1 46061C 20055AL  26257.86368056 -.00024456  00000+0 -78643-3 0  2573
2 46061  53.1597 313.5192 0001143  82.8309 121.3244 15.31714468    10

Suivez STARLINK-1573 en temps réel avec AllMySat

Download on the App Store